Time,TemperatureF,DewpointF,PressureIn,WindDirection,WindDirectionDegrees,WindSpeedMPH,WindSpeedGustMPH,Humidity,HourlyPrecipIn,Conditions,Clouds,dailyrainin,SoftwareType,DateUTC
2013-04-16 00:02:00,32.0,25.0,30.05,North,-999,-999.0,-999.0,74,-99.99,,,-99.99,,2013-04-16 05:02:00,
2013-04-16 00:12:00,32.0,25.0,30.05,North,-999,-999.0,-999.0,74,-99.99,,,-99.99,,2013-04-16 05:12:00,
2013-04-16 00:22:00,32.0,25.0,30.05,North,-999,-999.0,-999.0,74,-99.99,,,-99.99,,2013-04-16 05:22:00,
2013-04-16 00:32:00,32.0,25.0,30.05,North,-999,-999.0,-999.0,74,-99.99,,,-99.99,,2013-04-16 05:32:00,
2013-04-16 00:42:00,32.0,25.0,30.05,North,-999,-999.0,-999.0,74,-99.99,,,-99.99,,2013-04-16 05:42:00,
2013-04-16 00:52:00,30.0,23.0,30.06,North,-999,-999.0,-999.0,74,-99.99,,,-99.99,,2013-04-16 05:52:00,
2013-04-16 01:02:00,30.0,23.0,30.06,North,-999,-999.0,-999.0,74,-99.99,,,-99.99,,2013-04-16 06:02:00,
2013-04-16 01:12:00,28.0,21.0,30.05,North,-999,-999.0,-999.0,74,-99.99,,,-99.99,,2013-04-16 06:12:00,
2013-04-16 01:22:00,28.0,21.0,30.05,North,-999,-999.0,-999.0,74,-99.99,,,-99.99,,2013-04-16 06:22:00,
2013-04-16 01:32:00,28.0,21.0,30.06,North,-999,-999.0,-999.0,74,-99.99,,,-99.99,,2013-04-16 06:32:00,
2013-04-16 01:42:00,28.0,21.0,30.06,North,-999,-999.0,-999.0,74,-99.99,,,-99.99,,2013-04-16 06:42:00,
2013-04-16 01:52:00,28.0,21.0,30.06,North,-999,-999.0,-999.0,74,-99.99,,,-99.99,,2013-04-16 06:52:00,
2013-04-16 02:02:00,28.0,21.0,30.06,North,-999,-999.0,-999.0,74,-99.99,,,-99.99,,2013-04-16 07:02:00,
2013-04-16 02:12:00,28.0,21.0,30.06,North,-999,-999.0,-999.0,74,-99.99,,,-99.99,,2013-04-16 07:12:00,
2013-04-16 02:32:00,27.0,19.0,30.07,North,-999,-999.0,-999.0,73,-99.99,,,-99.99,,2013-04-16 07:32:00,
2013-04-16 02:42:00,27.0,19.0,30.07,North,-999,-999.0,-999.0,73,-99.99,,,-99.99,,2013-04-16 07:42:00,
2013-04-16 02:53:00,27.0,21.0,30.08,North,-999,-999.0,-999.0,79,-99.99,,,-99.99,,2013-04-16 07:53:00,
2013-04-16 03:02:00,27.0,21.0,30.08,North,-999,-999.0,-999.0,79,-99.99,,,-99.99,,2013-04-16 08:02:00,
2013-04-16 03:12:00,27.0,21.0,30.08,North,-999,-999.0,-999.0,79,-99.99,,,-99.99,,2013-04-16 08:12:00,
2013-04-16 03:22:00,27.0,21.0,30.08,North,-999,-999.0,-999.0,79,-99.99,,,-99.99,,2013-04-16 08:22:00,
2013-04-16 03:32:00,27.0,21.0,30.08,North,-999,-999.0,-999.0,79,-99.99,,,-99.99,,2013-04-16 08:32:00,
2013-04-16 03:42:00,27.0,21.0,30.08,North,-999,-999.0,-999.0,79,-99.99,,,-99.99,,2013-04-16 08:42:00,
2013-04-16 03:52:00,27.0,21.0,30.10,North,-999,-999.0,-999.0,79,-99.99,,,-99.99,,2013-04-16 08:52:00,
2013-04-16 04:02:00,27.0,21.0,30.10,North,-999,-999.0,-999.0,79,-99.99,,,-99.99,,2013-04-16 09:02:00,
2013-04-16 04:12:00,27.0,21.0,30.10,North,-999,-999.0,-999.0,79,-99.99,,,-99.99,,2013-04-16 09:12:00,
2013-04-16 04:22:00,27.0,21.0,30.10,North,-999,-999.0,-999.0,79,-99.99,,,-99.99,,2013-04-16 09:22:00,
2013-04-16 04:33:00,27.0,21.0,30.11,North,-999,-999.0,-999.0,79,-99.99,,,-99.99,,2013-04-16 09:33:00,
2013-04-16 04:43:00,27.0,21.0,30.11,North,-999,-999.0,-999.0,79,-99.99,,,-99.99,,2013-04-16 09:43:00,
2013-04-16 04:53:00,27.0,19.0,30.11,North,-999,-999.0,-999.0,73,-99.99,,,-99.99,,2013-04-16 09:53:00,
2013-04-16 05:03:00,27.0,19.0,30.11,North,-999,-999.0,-999.0,73,-99.99,,,-99.99,,2013-04-16 10:03:00,
2013-04-16 05:13:00,27.0,19.0,30.12,North,-999,-999.0,-999.0,73,-99.99,,,-99.99,,2013-04-16 10:13:00,
2013-04-16 05:23:00,27.0,19.0,30.12,North,-999,-999.0,-999.0,73,-99.99,,,-99.99,,2013-04-16 10:23:00,
2013-04-16 05:33:00,27.0,19.0,30.12,North,-999,-999.0,-999.0,73,-99.99,,,-99.99,,2013-04-16 10:33:00,
2013-04-16 05:42:00,27.0,19.0,30.12,North,-999,-999.0,-999.0,73,-99.99,,,-99.99,,2013-04-16 10:42:00,
2013-04-16 05:52:00,25.0,19.0,30.13,North,-999,-999.0,-999.0,79,-99.99,,,-99.99,,2013-04-16 10:52:00,
2013-04-16 06:02:00,25.0,19.0,30.13,North,-999,-999.0,-999.0,79,-99.99,,,-99.99,,2013-04-16 11:02:00,
2013-04-16 06:12:00,25.0,19.0,30.14,North,-999,-999.0,-999.0,79,-99.99,,,-99.99,,2013-04-16 11:12:00,
2013-04-16 06:22:00,25.0,19.0,30.14,North,-999,-999.0,-999.0,79,-99.99,,,-99.99,,2013-04-16 11:22:00,
2013-04-16 06:32:00,27.0,21.0,30.14,North,-999,-999.0,-999.0,79,-99.99,,,-99.99,,2013-04-16 11:32:00,
2013-04-16 06:42:00,27.0,21.0,30.14,North,-999,-999.0,-999.0,79,-99.99,,,-99.99,,2013-04-16 11:42:00,
2013-04-16 06:52:00,28.0,21.0,30.15,North,-999,-999.0,-999.0,74,-99.99,,,-99.99,,2013-04-16 11:52:00,
2013-04-16 07:02:00,28.0,21.0,30.15,North,-999,-999.0,-999.0,74,-99.99,,,-99.99,,2013-04-16 12:02:00,
2013-04-16 07:12:00,27.0,21.0,30.16,North,-999,-999.0,-999.0,79,-99.99,,,-99.99,,2013-04-16 12:12:00,
2013-04-16 07:22:00,27.0,21.0,30.16,North,-999,-999.0,-999.0,79,-99.99,,,-99.99,,2013-04-16 12:22:00,
2013-04-16 07:32:00,25.0,19.0,30.18,North,-999,-999.0,-999.0,79,-99.99,,,-99.99,,2013-04-16 12:32:00,
2013-04-16 07:42:00,25.0,19.0,30.18,North,-999,-999.0,-999.0,79,-99.99,,,-99.99,,2013-04-16 12:42:00,
2013-04-16 07:52:00,27.0,21.0,30.19,North,-999,-999.0,-999.0,79,-99.99,,,-99.99,,2013-04-16 12:52:00,
2013-04-16 08:02:00,27.0,21.0,30.19,North,-999,-999.0,-999.0,79,-99.99,,,-99.99,,2013-04-16 13:02:00,
2013-04-16 08:12:00,27.0,21.0,30.20,North,-999,-999.0,-999.0,79,-99.99,,,-99.99,,2013-04-16 13:12:00,
2013-04-16 08:22:00,27.0,21.0,30.20,North,-999,-999.0,-999.0,79,-99.99,,,-99.99,,2013-04-16 13:22:00,
2013-04-16 08:32:00,28.0,21.0,30.21,North,-999,-999.0,-999.0,74,-99.99,,,-99.99,,2013-04-16 13:32:00,
2013-04-16 08:42:00,28.0,21.0,30.21,North,-999,-999.0,-999.0,74,-99.99,,,-99.99,,2013-04-16 13:42:00,
2013-04-16 08:52:00,28.0,21.0,30.22,North,-999,-999.0,-999.0,74,-99.99,,,-99.99,,2013-04-16 13:52:00,
2013-04-16 09:02:00,28.0,21.0,30.22,North,-999,-999.0,-999.0,74,-99.99,,,-99.99,,2013-04-16 14:02:00,
2013-04-16 09:12:00,28.0,21.0,30.22,North,-999,-999.0,-999.0,74,-99.99,,,-99.99,,2013-04-16 14:12:00,
2013-04-16 09:22:00,28.0,21.0,30.22,North,-999,-999.0,-999.0,74,-99.99,,,-99.99,,2013-04-16 14:22:00,
2013-04-16 09:32:00,28.0,21.0,30.23,North,-999,-999.0,-999.0,74,-99.99,,,-99.99,,2013-04-16 14:32:00,
2013-04-16 09:42:00,28.0,21.0,30.23,North,-999,-999.0,-999.0,74,-99.99,,,-99.99,,2013-04-16 14:42:00,
2013-04-16 09:52:00,30.0,23.0,30.23,North,-999,-999.0,-999.0,74,-99.99,,,-99.99,,2013-04-16 14:52:00,
2013-04-16 10:02:00,30.0,23.0,30.23,North,-999,-999.0,-999.0,74,-99.99,,,-99.99,,2013-04-16 15:02:00,
2013-04-16 10:12:00,30.0,23.0,30.23,North,-999,-999.0,-999.0,74,-99.99,,,-99.99,,2013-04-16 15:12:00,
2013-04-16 10:22:00,30.0,23.0,30.23,North,-999,-999.0,-999.0,74,-99.99,,,-99.99,,2013-04-16 15:22:00,
2013-04-16 10:33:00,30.0,25.0,30.24,North,-999,-999.0,-999.0,80,-99.99,,,-99.99,,2013-04-16 15:33:00,
2013-04-16 10:43:00,30.0,25.0,30.24,North,-999,-999.0,-999.0,80,-99.99,,,-99.99,,2013-04-16 15:43:00,
2013-04-16 10:52:00,30.0,25.0,30.24,North,-999,-999.0,-999.0,80,-99.99,,,-99.99,,2013-04-16 15:52:00,
2013-04-16 11:03:00,30.0,25.0,30.24,North,-999,-999.0,-999.0,80,-99.99,,,-99.99,,2013-04-16 16:03:00,
2013-04-16 11:13:00,30.0,25.0,30.24,North,-999,-999.0,-999.0,80,-99.99,,,-99.99,,2013-04-16 16:13:00,
2013-04-16 11:23:00,30.0,25.0,30.24,North,-999,-999.0,-999.0,80,-99.99,,,-99.99,,2013-04-16 16:23:00,
2013-04-16 11:32:00,30.0,25.0,30.25,North,-999,-999.0,-999.0,80,-99.99,,,-99.99,,2013-04-16 16:32:00,
2013-04-16 11:42:00,30.0,25.0,30.25,North,-999,-999.0,-999.0,80,-99.99,,,-99.99,,2013-04-16 16:42:00,
2013-04-16 11:52:00,30.0,25.0,30.26,North,-999,-999.0,-999.0,80,-99.99,,,-99.99,,2013-04-16 16:52:00,
2013-04-16 12:02:00,30.0,25.0,30.26,North,-999,-999.0,-999.0,80,-99.99,,,-99.99,,2013-04-16 17:02:00,
2013-04-16 12:12:00,30.0,25.0,30.26,North,-999,-999.0,-999.0,80,-99.99,,,-99.99,,2013-04-16 17:12:00,
2013-04-16 12:22:00,30.0,25.0,30.26,North,-999,-999.0,-999.0,80,-99.99,,,-99.99,,2013-04-16 17:22:00,
2013-04-16 12:32:00,30.0,25.0,30.28,North,-999,-999.0,-999.0,80,-99.99,,,-99.99,,2013-04-16 17:32:00,
2013-04-16 12:43:00,30.0,25.0,30.28,North,-999,-999.0,-999.0,80,-99.99,,,-99.99,,2013-04-16 17:43:00,
2013-04-16 12:53:00,30.0,25.0,30.28,North,-999,-999.0,-999.0,80,-99.99,,,-99.99,,2013-04-16 17:53:00,
2013-04-16 13:02:00,30.0,25.0,30.28,North,-999,-999.0,-999.0,80,-99.99,,,-99.99,,2013-04-16 18:02:00,
2013-04-16 13:12:00,32.0,25.0,30.27,North,-999,-999.0,-999.0,74,-99.99,,,-99.99,,2013-04-16 18:12:00,
2013-04-16 13:22:00,32.0,25.0,30.27,North,-999,-999.0,-999.0,74,-99.99,,,-99.99,,2013-04-16 18:22:00,
2013-04-16 13:32:00,32.0,25.0,30.27,North,-999,-999.0,-999.0,74,-99.99,,,-99.99,,2013-04-16 18:32:00,
2013-04-16 13:42:00,32.0,25.0,30.27,North,-999,-999.0,-999.0,74,-99.99,,,-99.99,,2013-04-16 18:42:00,
2013-04-16 13:52:00,32.0,25.0,30.29,North,-999,-999.0,-999.0,74,-99.99,,,-99.99,,2013-04-16 18:52:00,
2013-04-16 14:02:00,32.0,25.0,30.29,North,-999,-999.0,-999.0,74,-99.99,,,-99.99,,2013-04-16 19:02:00,
2013-04-16 14:12:00,34.0,25.0,30.28,North,-999,-999.0,-999.0,69,-99.99,,,-99.99,,2013-04-16 19:12:00,
2013-04-16 14:22:00,34.0,25.0,30.28,North,-999,-999.0,-999.0,69,-99.99,,,-99.99,,2013-04-16 19:22:00,
2013-04-16 14:32:00,34.0,27.0,30.29,North,-999,-999.0,-999.0,74,-99.99,,,-99.99,,2013-04-16 19:32:00,
2013-04-16 14:42:00,34.0,27.0,30.29,North,-999,-999.0,-999.0,74,-99.99,,,-99.99,,2013-04-16 19:42:00,
2013-04-16 14:52:00,34.0,27.0,30.29,North,-999,-999.0,-999.0,74,-99.99,,,-99.99,,2013-04-16 19:52:00,
2013-04-16 15:02:00,34.0,27.0,30.29,North,-999,-999.0,-999.0,74,-99.99,,,-99.99,,2013-04-16 20:02:00,
2013-04-16 15:12:00,36.0,27.0,30.30,North,-999,-999.0,-999.0,69,-99.99,,,-99.99,,2013-04-16 20:12:00,
2013-04-16 15:22:00,36.0,27.0,30.30,North,-999,-999.0,-999.0,69,-99.99,,,-99.99,,2013-04-16 20:22:00,
2013-04-16 15:32:00,36.0,27.0,30.30,North,-999,-999.0,-999.0,69,-99.99,,,-99.99,,2013-04-16 20:32:00,
2013-04-16 15:42:00,36.0,27.0,30.30,North,-999,-999.0,-999.0,69,-99.99,,,-99.99,,2013-04-16 20:42:00,
2013-04-16 15:52:00,36.0,27.0,30.29,North,-999,-999.0,-999.0,69,-99.99,,,-99.99,,2013-04-16 20:52:00,
2013-04-16 16:02:00,36.0,27.0,30.29,North,-999,-999.0,-999.0,69,-99.99,,,-99.99,,2013-04-16 21:02:00,
2013-04-16 16:12:00,36.0,27.0,30.29,North,-999,-999.0,-999.0,69,-99.99,,,-99.99,,2013-04-16 21:12:00,
2013-04-16 16:22:00,36.0,27.0,30.29,North,-999,-999.0,-999.0,69,-99.99,,,-99.99,,2013-04-16 21:22:00,
2013-04-16 16:32:00,36.0,27.0,30.29,North,-999,-999.0,-999.0,69,-99.99,,,-99.99,,2013-04-16 21:32:00,
2013-04-16 16:43:00,36.0,27.0,30.29,North,-999,-999.0,-999.0,69,-99.99,,,-99.99,,2013-04-16 21:43:00,
2013-04-16 16:52:00,36.0,27.0,30.29,North,-999,-999.0,-999.0,69,-99.99,,,-99.99,,2013-04-16 21:52:00,
2013-04-16 17:02:00,36.0,27.0,30.29,North,-999,-999.0,-999.0,69,-99.99,,,-99.99,,2013-04-16 22:02:00,
2013-04-16 17:13:00,36.0,27.0,30.29,North,-999,-999.0,-999.0,69,-99.99,,,-99.99,,2013-04-16 22:13:00,
2013-04-16 17:22:00,34.0,27.0,30.29,North,-999,-999.0,-999.0,74,-99.99,,,-99.99,,2013-04-16 22:22:00,
2013-04-16 17:33:00,34.0,27.0,30.29,North,-999,-999.0,-999.0,74,-99.99,,,-99.99,,2013-04-16 22:33:00,
2013-04-16 17:42:00,34.0,27.0,30.29,North,-999,-999.0,-999.0,74,-99.99,,,-99.99,,2013-04-16 22:42:00,
2013-04-16 17:52:00,34.0,27.0,30.30,North,-999,-999.0,-999.0,74,-99.99,,,-99.99,,2013-04-16 22:52:00,
2013-04-16 18:02:00,34.0,27.0,30.30,North,-999,-999.0,-999.0,74,-99.99,,,-99.99,,2013-04-16 23:02:00,
2013-04-16 18:12:00,34.0,25.0,30.30,North,-999,-999.0,-999.0,69,-99.99,,,-99.99,,2013-04-16 23:12:00,
2013-04-16 18:22:00,34.0,25.0,30.30,North,-999,-999.0,-999.0,69,-99.99,,,-99.99,,2013-04-16 23:22:00,
2013-04-16 18:32:00,34.0,25.0,30.30,North,-999,-999.0,-999.0,69,-99.99,,,-99.99,,2013-04-16 23:32:00,
2013-04-16 18:42:00,34.0,25.0,30.30,North,-999,-999.0,-999.0,69,-99.99,,,-99.99,,2013-04-16 23:42:00,
2013-04-16 18:52:00,34.0,27.0,30.31,North,-999,-999.0,-999.0,74,-99.99,,,-99.99,,2013-04-16 23:52:00,
2013-04-16 19:02:00,34.0,27.0,30.31,North,-999,-999.0,-999.0,74,-99.99,,,-99.99,,2013-04-17 00:02:00,
2013-04-16 19:12:00,34.0,27.0,30.32,North,-999,-999.0,-999.0,74,-99.99,,,-99.99,,2013-04-17 00:12:00,
2013-04-16 19:22:00,34.0,27.0,30.32,North,-999,-999.0,-999.0,74,-99.99,,,-99.99,,2013-04-17 00:22:00,
2013-04-16 19:32:00,34.0,27.0,30.32,North,-999,-999.0,-999.0,74,-99.99,,,-99.99,,2013-04-17 00:32:00,
2013-04-16 19:42:00,34.0,27.0,30.32,North,-999,-999.0,-999.0,74,-99.99,,,-99.99,,2013-04-17 00:42:00,
2013-04-16 19:52:00,32.0,27.0,30.32,North,-999,-999.0,-999.0,80,-99.99,,,-99.99,,2013-04-17 00:52:00,
2013-04-16 20:02:00,32.0,27.0,30.32,North,-999,-999.0,-999.0,80,-99.99,,,-99.99,,2013-04-17 01:02:00,
2013-04-16 20:12:00,32.0,27.0,30.32,North,-999,-999.0,-999.0,80,-99.99,,,-99.99,,2013-04-17 01:12:00,
2013-04-16 20:22:00,32.0,27.0,30.32,North,-999,-999.0,-999.0,80,-99.99,,,-99.99,,2013-04-17 01:22:00,
2013-04-16 20:32:00,32.0,27.0,30.32,North,-999,-999.0,-999.0,80,-99.99,,,-99.99,,2013-04-17 01:32:00,
2013-04-16 20:42:00,32.0,27.0,30.32,North,-999,-999.0,-999.0,80,-99.99,,,-99.99,,2013-04-17 01:42:00,
2013-04-16 20:52:00,32.0,27.0,30.32,North,-999,-999.0,-999.0,80,-99.99,,,-99.99,,2013-04-17 01:52:00,
2013-04-16 21:02:00,32.0,27.0,30.32,North,-999,-999.0,-999.0,80,-99.99,,,-99.99,,2013-04-17 02:02:00,
2013-04-16 21:12:00,30.0,27.0,30.33,North,-999,-999.0,-999.0,86,-99.99,,,-99.99,,2013-04-17 02:12:00,
2013-04-16 21:22:00,30.0,27.0,30.33,North,-999,-999.0,-999.0,86,-99.99,,,-99.99,,2013-04-17 02:22:00,
2013-04-16 21:32:00,30.0,27.0,30.33,North,-999,-999.0,-999.0,86,-99.99,,,-99.99,,2013-04-17 02:32:00,
2013-04-16 21:42:00,30.0,27.0,30.33,North,-999,-999.0,-999.0,86,-99.99,,,-99.99,,2013-04-17 02:42:00,
2013-04-16 21:52:00,30.0,25.0,30.34,North,-999,-999.0,-999.0,80,-99.99,,,-99.99,,2013-04-17 02:52:00,
2013-04-16 22:02:00,30.0,25.0,30.34,North,-999,-999.0,-999.0,80,-99.99,,,-99.99,,2013-04-17 03:02:00,
2013-04-16 22:12:00,30.0,25.0,30.34,North,-999,-999.0,-999.0,80,-99.99,,,-99.99,,2013-04-17 03:12:00,
2013-04-16 22:22:00,30.0,25.0,30.34,North,-999,-999.0,-999.0,80,-99.99,,,-99.99,,2013-04-17 03:22:00,
2013-04-16 22:33:00,28.0,25.0,30.34,North,-999,-999.0,-999.0,86,-99.99,,,-99.99,,2013-04-17 03:33:00,
2013-04-16 22:42:00,28.0,25.0,30.34,North,-999,-999.0,-999.0,86,-99.99,,,-99.99,,2013-04-17 03:42:00,
2013-04-16 22:53:00,28.0,25.0,30.35,North,-999,-999.0,-999.0,86,-99.99,,,-99.99,,2013-04-17 03:53:00,
2013-04-16 23:03:00,28.0,25.0,30.35,North,-999,-999.0,-999.0,86,-99.99,,,-99.99,,2013-04-17 04:03:00,
2013-04-16 23:13:00,28.0,25.0,30.34,North,-999,-999.0,-999.0,86,-99.99,,,-99.99,,2013-04-17 04:13:00,
2013-04-16 23:22:00,28.0,25.0,30.34,North,-999,-999.0,-999.0,86,-99.99,,,-99.99,,2013-04-17 04:22:00,
2013-04-16 23:33:00,28.0,25.0,30.34,North,-999,-999.0,-999.0,86,-99.99,,,-99.99,,2013-04-17 04:33:00,
2013-04-16 23:42:00,28.0,25.0,30.34,North,-999,-999.0,-999.0,86,-99.99,,,-99.99,,2013-04-17 04:42:00,
2013-04-16 23:52:00,30.0,27.0,30.34,North,-999,-999.0,-999.0,86,-99.99,,,-99.99,,2013-04-17 04:52:00,